COSMOS 1710 (GLONASS)

Satellite information

Favourite Embed

Satellite Type and Status

PAYLOADIN ORBIT

Key statistics

Satellite COSMOS 1710 (GLONASS) at a glance.

Uptime

14600

Days in orbit

Revolutions

≈ 2.1

Per day

Orbit

MEO

Medium Earth Orbit

Inclination

66.1

Latest

Satellite identification and parameters

Extended collection of information and parameters for COSMOS 1710 (GLONASS).

Object identification

Identified? True

Debris? False

Object name: COSMOS 1710 (GLONASS)

International designator: 1985-118A

Object number (NORAD): 16396

Object ID (CCSDS): 16396

Country: COMMONWEALTH OF INDEPENDENT STATES (CIS)

Current information (Y/N): Y

RCS size: MEDIUM

Orbital parameters

Period: 675.73 minutes

Inclination: 66.1356 deg

SMA: 25507.951 km

Apoapsis: 19165.552 km

Periapsis: 19094.08 km

RAAN: 330.4363 deg

Eccentricy: 0.00140097

Argument of periapsis: 206.0364 deg

Mean anomaly: 146.9597 deg

Mean motion: 2.13102924 rev/day

Mean motion (dot): -0.00000053 rev/day2

B* drag term: 0.0 1/REarth

Two-line elements (TLE)

Creation date: Dec. 12, 2025, 10:14 a.m.

Reference frame: TEME

Reference center: EARTH

Epoch: Dec. 12, 2025, 2:40 a.m. UTC

TLE line 0: 0 COSMOS 1710 (GLONASS)

TLE line 1: 1 16396U 85118A 25346.11155722 -.00000053 00000-0 00000-0 0 9991

TLE line 2: 2 16396 66.1356 330.4363 0014010 206.0364 146.9597 2.13102924311137

Live tracking on map

Real-time ground track for satellite COSMOS 1710 (GLONASS).

In-orbit conjunctions

A list of the most updated potential collisions computed for object COSMOS 1710 (GLONASS).

Target Orbit TCA Probability of collision Miss distance Type
SL-12 R/B(AUX MOTOR) HEO 2025-09-12 18:11:46 TBA 662.0 (m) ROCKET BODY

Associated space launch

GLONASS navigation satellites

COSMOS 1710 (GLONASS) was lifted into orbit during the mission ‘Proton | Uragan 12 & 13’, on board a Proton space rocket.

The launch took place on Dec. 24, 1985, 9:43 p.m. from 200/39 (200L).

For more information about the launch, click the button.

Launch to space Proton | Uragan 12 & 13
Proton | Uragan 12 & 13

Agency: N/A

Status: Launch Successful

Launch date: Dec. 24, 1985, 9:43 p.m. UTC

Rocket: Proton

Launch pad: 200/39 (200L)

Location: Baikonur Cosmodrome, Republic of Kazakhstan

...

Latest news about this satellite

There are no fresh news available about this satellite. Check back as we update our databases every day.


Newsletter sign-up

Weekly statistics, charts and insights to help you stay on top of the space industry.